Мон-де-Марсан

Франция     43°53′35″N   0°30′01″E
В апреле 2022 года жителям России запретили посещать сайт meteo.paraplan.net по решению Генеральной прокуратуры. Аудитория сайта уменьшилась в 10 раз. Владельцы сайта не видят смысла в поддержке погодного сервера в таких условиях. Сайт будет закрыт в октябре.
темп.,
°C
ветер,
м/с
пор.,
м/с
влажн.,
%
обл.,
%
осадки,
мм/ч
давл.,
гПа
погр.,
м
3 октября, пн
пн323:00+15ссв2393100 0.0 102678
02:00+14св2293100 0.0 102539
05:00+13всв2396100 0.0 102473
08:00+13в2397100 0.0 102462
11:00+18в2372100 0.0 1024415
14:00+23всв2251100 0.0 1022882
17:00+24св224496 0.0 1021994
20:00+18всв11638 0.0 102111
4 октября, вт
вт423:00+15всв007210 0.0 102111
02:00+14всв00785 0.0 102111
05:00+13ю11850 0.0 102011
08:00+12ююв00890 0.0 102110
11:00+20юв11570 0.0 1021304
14:00+26ю11360 0.0 1021977
17:00+26зсз123286 0.0 10201276
20:00+19юз11566 0.0 102111
5 октября, ср
ср523:00+16ссв11685 0.0 102111
02:00+15юв1175100 0.0 102111
05:00+14вюв22805 0.0 102017
08:00+13вюв23709 0.0 102044
11:00+21юв24460 0.0 1020310
14:00+28ююз12305 0.0 1020925
17:00+28зсз33317 0.0 10201488
20:00+19зсз27640 0.0 1024188
6 октября, чт
чт623:00+15зсз26840 0.0 1027162
02:00+14зсз11982 0.0 102933
05:00+14с1297100 0.0 102967
08:00+16с1288100 0.1 102982
11:00+18ссв127195 0.0 1029810
14:00+23с2251100 0.0 10281094
17:00+23ссв2247100 0.0 10261308
20:00+18ссв2464100 0.0 102683
7 октября, пт
пт723:00+16св2269100 0.0 102635
02:00+15в1173100 0.0 102511
05:00+15в1176100 0.0 102314
08:00+14в1178100 0.0 102314
11:00+21в235997 0.0 1023392
14:00+26всв114354 0.0 1022992
17:00+26с1142100 0.0 10201359
20:00+20св1160100 0.0 102012